Time,TemperatureF,DewpointF,PressureIn,WindDirection,WindDirectionDegrees,WindSpeedMPH,WindSpeedGustMPH,Humidity,HourlyPrecipIn,Conditions,Clouds,dailyrainin,SolarRadiationWatts/m^2,SoftwareType,DateUTC
2013-11-04 00:01:00,29.0,23.0,-100.00,ENE,76,0.0,7.0,79,0.00,,,0.01,0.000000,,2013-11-04 07:01:00,
2013-11-04 00:11:00,29.0,23.0,-100.00,ENE,76,0.0,7.0,79,0.00,,,0.01,0.000000,,2013-11-04 07:11:00,
2013-11-04 00:21:00,29.0,23.0,-100.00,ENE,76,0.0,7.0,79,0.00,,,0.01,0.000000,,2013-11-04 07:21:00,
2013-11-04 00:52:00,27.0,21.0,-100.00,ESE,109,1.0,3.0,79,0.00,,,0.01,0.000000,,2013-11-04 07:52:00,
2013-11-04 01:02:00,27.0,21.0,-100.00,ESE,109,1.0,3.0,79,0.00,,,0.01,0.000000,,2013-11-04 08:02:00,
2013-11-04 01:12:00,27.0,21.0,-100.00,ESE,109,1.0,3.0,79,0.00,,,0.01,0.000000,,2013-11-04 08:12:00,
2013-11-04 01:21:00,27.0,21.0,-100.00,ESE,109,1.0,3.0,79,0.00,,,0.01,0.000000,,2013-11-04 08:21:00,
2013-11-04 01:52:00,27.0,21.0,-100.00,NE,47,0.0,5.0,79,0.00,,,0.01,0.000000,,2013-11-04 08:52:00,
2013-11-04 02:02:00,27.0,21.0,-100.00,NE,47,0.0,5.0,79,0.00,,,0.01,0.000000,,2013-11-04 09:02:00,
2013-11-04 02:12:00,27.0,21.0,-100.00,NE,47,0.0,5.0,79,0.00,,,0.01,0.000000,,2013-11-04 09:12:00,
2013-11-04 02:21:00,27.0,21.0,-100.00,NE,47,0.0,5.0,79,0.00,,,0.01,0.000000,,2013-11-04 09:21:00,
2013-11-04 02:53:00,26.0,21.0,-100.00,NNE,23,0.0,5.0,81,0.00,,,0.01,0.000000,,2013-11-04 09:53:00,
2013-11-04 03:03:00,26.0,21.0,-100.00,NNE,23,0.0,5.0,81,0.00,,,0.01,0.000000,,2013-11-04 10:03:00,
2013-11-04 03:12:00,26.0,21.0,-100.00,NNE,23,0.0,5.0,81,0.00,,,0.01,0.000000,,2013-11-04 10:12:00,
2013-11-04 03:23:00,26.0,21.0,-100.00,NNE,23,0.0,5.0,81,0.00,,,0.01,0.000000,,2013-11-04 10:23:00,
2013-11-04 03:52:00,25.0,21.0,-100.00,NE,55,0.0,4.0,86,0.00,,,0.01,0.000000,,2013-11-04 10:52:00,
2013-11-04 04:02:00,25.0,21.0,-100.00,NE,55,0.0,4.0,86,0.00,,,0.01,0.000000,,2013-11-04 11:02:00,
2013-11-04 04:12:00,25.0,21.0,-100.00,NE,55,0.0,4.0,86,0.00,,,0.01,0.000000,,2013-11-04 11:12:00,
2013-11-04 04:22:00,25.0,21.0,-100.00,NE,55,0.0,4.0,86,0.00,,,0.01,0.000000,,2013-11-04 11:22:00,
2013-11-04 04:52:00,23.0,22.0,-100.00,West,270,0.0,0.0,95,0.00,,,0.01,0.000000,,2013-11-04 11:52:00,
2013-11-04 05:02:00,23.0,22.0,-100.00,West,270,0.0,0.0,95,0.00,,,0.01,0.000000,,2013-11-04 12:02:00,
2013-11-04 05:11:00,23.0,22.0,-100.00,West,270,0.0,0.0,95,0.00,,,0.01,0.000000,,2013-11-04 12:11:00,
2013-11-04 05:21:00,23.0,22.0,-100.00,West,270,0.0,0.0,95,0.00,,,0.01,0.000000,,2013-11-04 12:21:00,
2013-11-04 05:52:00,21.0,21.0,-100.00,NW,320,0.0,0.0,100,0.00,,,-99.99,0.000000,,2013-11-04 12:52:00,
2013-11-04 06:01:00,21.0,21.0,-100.00,NW,320,0.0,0.0,100,0.00,,,-99.99,0.000000,,2013-11-04 13:01:00,
2013-11-04 06:11:00,21.0,21.0,-100.00,NW,320,0.0,0.0,100,0.00,,,-99.99,0.000000,,2013-11-04 13:11:00,
2013-11-04 06:21:00,21.0,21.0,-100.00,NW,320,0.0,0.0,100,0.00,,,-99.99,0.000000,,2013-11-04 13:21:00,
2013-11-04 06:52:00,20.0,20.0,-100.00,NW,320,0.0,2.0,100,0.00,,,0.01,0.000000,,2013-11-04 13:52:00,
2013-11-04 07:02:00,20.0,20.0,-100.00,NW,320,0.0,2.0,100,0.00,,,0.01,0.000000,,2013-11-04 14:02:00,
2013-11-04 07:11:00,20.0,20.0,-100.00,NW,320,0.0,2.0,100,0.00,,,0.01,0.000000,,2013-11-04 14:11:00,
2013-11-04 07:21:00,20.0,20.0,-100.00,NW,320,0.0,2.0,100,0.00,,,0.01,0.000000,,2013-11-04 14:21:00,
2013-11-04 07:52:00,21.0,21.0,-100.00,SSE,159,0.0,3.0,100,0.00,,,0.01,0.000000,,2013-11-04 14:52:00,
2013-11-04 08:02:00,21.0,21.0,-100.00,SSE,159,0.0,3.0,100,0.00,,,0.01,0.000000,,2013-11-04 15:02:00,
2013-11-04 08:11:00,21.0,21.0,-100.00,SSE,159,0.0,3.0,100,0.00,,,0.01,0.000000,,2013-11-04 15:11:00,
2013-11-04 08:21:00,21.0,21.0,-100.00,SSE,159,0.0,3.0,100,0.00,,,0.01,0.000000,,2013-11-04 15:21:00,
2013-11-04 08:52:00,21.0,21.0,-100.00,ESE,109,0.0,3.0,99,0.00,,,0.01,11.000000,,2013-11-04 15:52:00,
2013-11-04 09:03:00,21.0,21.0,-100.00,ESE,109,0.0,3.0,99,0.00,,,0.01,11.000000,,2013-11-04 16:03:00,
2013-11-04 09:12:00,21.0,21.0,-100.00,ESE,109,0.0,3.0,99,0.00,,,0.01,11.000000,,2013-11-04 16:12:00,
2013-11-04 09:23:00,21.0,21.0,-100.00,ESE,109,0.0,3.0,99,0.00,,,0.01,11.000000,,2013-11-04 16:23:00,
2013-11-04 09:53:00,26.0,21.0,-100.00,North,356,0.0,3.0,81,0.00,,,0.01,100.000000,,2013-11-04 16:53:00,
2013-11-04 10:03:00,26.0,21.0,-100.00,North,356,0.0,3.0,81,0.00,,,0.01,100.000000,,2013-11-04 17:03:00,
2013-11-04 10:12:00,26.0,21.0,-100.00,North,356,0.0,3.0,81,0.00,,,0.01,100.000000,,2013-11-04 17:12:00,
2013-11-04 10:22:00,26.0,21.0,-100.00,North,356,0.0,3.0,81,0.00,,,0.01,100.000000,,2013-11-04 17:22:00,
2013-11-04 10:53:00,27.0,21.0,-100.00,WNW,289,4.0,4.0,77,0.00,,,0.01,229.000000,,2013-11-04 17:53:00,
2013-11-04 11:01:00,27.0,21.0,-100.00,WNW,289,4.0,4.0,77,0.00,,,0.01,229.000000,,2013-11-04 18:01:00,
2013-11-04 11:12:00,27.0,21.0,-100.00,WNW,289,4.0,4.0,77,0.00,,,0.01,229.000000,,2013-11-04 18:12:00,
2013-11-04 11:22:00,27.0,21.0,-100.00,WNW,289,4.0,4.0,77,0.00,,,0.01,229.000000,,2013-11-04 18:22:00,
2013-11-04 11:52:00,29.0,21.0,-100.00,WNW,287,1.0,7.0,72,0.00,,,0.01,228.000000,,2013-11-04 18:52:00,
2013-11-04 12:01:00,29.0,21.0,-100.00,WNW,287,1.0,7.0,72,0.00,,,0.01,228.000000,,2013-11-04 19:01:00,
2013-11-04 12:12:00,29.0,21.0,-100.00,WNW,287,1.0,7.0,72,0.00,,,0.01,228.000000,,2013-11-04 19:12:00,
2013-11-04 12:22:00,29.0,21.0,-100.00,WNW,287,1.0,7.0,72,0.00,,,0.01,228.000000,,2013-11-04 19:22:00,
2013-11-04 12:52:00,30.0,19.0,-100.00,SSE,147,2.0,5.0,63,0.00,,,0.00,120.000000,,2013-11-04 19:52:00,
2013-11-04 13:01:00,30.0,19.0,-100.00,SSE,147,2.0,5.0,63,0.00,,,0.00,120.000000,,2013-11-04 20:01:00,
2013-11-04 13:11:00,30.0,19.0,-100.00,SSE,147,2.0,5.0,63,0.00,,,0.00,120.000000,,2013-11-04 20:11:00,
2013-11-04 13:22:00,30.0,19.0,-100.00,SSE,147,2.0,5.0,63,0.00,,,0.00,120.000000,,2013-11-04 20:22:00,
2013-11-04 13:52:00,36.0,19.0,-100.00,SW,235,2.0,7.0,50,0.00,,,0.00,528.000000,,2013-11-04 20:52:00,
2013-11-04 14:03:00,36.0,19.0,-100.00,SW,235,2.0,7.0,50,0.00,,,0.00,528.000000,,2013-11-04 21:03:00,
2013-11-04 14:12:00,36.0,19.0,-100.00,SW,235,2.0,7.0,50,0.00,,,0.00,528.000000,,2013-11-04 21:12:00,
2013-11-04 14:21:00,36.0,19.0,-100.00,SW,235,2.0,7.0,50,0.00,,,0.00,528.000000,,2013-11-04 21:21:00,
2013-11-04 14:54:00,34.0,15.0,-100.00,WNW,293,4.0,7.0,46,0.00,,,0.00,171.000000,,2013-11-04 21:54:00,
2013-11-04 15:04:00,34.0,15.0,-100.00,WNW,293,4.0,7.0,46,0.00,,,0.00,171.000000,,2013-11-04 22:04:00,
2013-11-04 15:13:00,34.0,15.0,-100.00,WNW,293,4.0,7.0,46,0.00,,,0.00,171.000000,,2013-11-04 22:13:00,
2013-11-04 15:23:00,34.0,15.0,-100.00,WNW,293,4.0,7.0,46,0.00,,,0.00,171.000000,,2013-11-04 22:23:00,
2013-11-04 15:53:00,33.0,16.0,-100.00,SSE,157,1.0,8.0,50,0.00,,,0.00,141.000000,,2013-11-04 22:53:00,
2013-11-04 16:02:00,33.0,16.0,-100.00,SSE,157,1.0,8.0,50,0.00,,,0.00,141.000000,,2013-11-04 23:02:00,
2013-11-04 16:12:00,33.0,16.0,-100.00,SSE,157,1.0,8.0,50,0.00,,,0.00,141.000000,,2013-11-04 23:12:00,
2013-11-04 16:22:00,33.0,16.0,-100.00,SSE,157,1.0,8.0,50,0.00,,,0.00,141.000000,,2013-11-04 23:22:00,
2013-11-04 16:53:00,32.0,14.0,-100.00,ESE,110,0.0,8.0,46,0.00,,,0.00,87.000000,,2013-11-04 23:53:00,
2013-11-04 17:02:00,32.0,14.0,-100.00,ESE,110,0.0,8.0,46,0.00,,,0.00,87.000000,,2013-11-05 00:02:00,
2013-11-04 17:12:00,32.0,14.0,-100.00,ESE,110,0.0,8.0,46,0.00,,,0.00,87.000000,,2013-11-05 00:12:00,
2013-11-04 17:22:00,32.0,14.0,-100.00,ESE,110,0.0,8.0,46,0.00,,,0.00,87.000000,,2013-11-05 00:22:00,
2013-11-04 17:52:00,30.0,19.0,-100.00,South,179,0.0,6.0,63,0.00,,,0.00,28.000000,,2013-11-05 00:52:00,
2013-11-04 18:02:00,30.0,19.0,-100.00,South,179,0.0,6.0,63,0.00,,,0.00,28.000000,,2013-11-05 01:02:00,
2013-11-04 18:11:00,30.0,19.0,-100.00,South,179,0.0,6.0,63,0.00,,,0.00,28.000000,,2013-11-05 01:11:00,
2013-11-04 18:21:00,30.0,19.0,-100.00,South,179,0.0,6.0,63,0.00,,,0.00,28.000000,,2013-11-05 01:21:00,
2013-11-04 18:52:00,29.0,19.0,-100.00,SE,126,0.0,4.0,66,0.00,,,0.00,1.000000,,2013-11-05 01:52:00,
2013-11-04 19:01:00,29.0,19.0,-100.00,SE,126,0.0,4.0,66,0.00,,,0.00,1.000000,,2013-11-05 02:01:00,
2013-11-04 19:11:00,29.0,19.0,-100.00,SE,126,0.0,4.0,66,0.00,,,0.00,1.000000,,2013-11-05 02:11:00,
2013-11-04 19:22:00,29.0,19.0,-100.00,SE,126,0.0,4.0,66,0.00,,,0.00,1.000000,,2013-11-05 02:22:00,
2013-11-04 19:52:00,27.0,20.0,-100.00,SSE,151,0.0,5.0,75,0.00,,,0.00,0.000000,,2013-11-05 02:52:00,
2013-11-04 20:02:00,27.0,20.0,-100.00,SSE,151,0.0,5.0,75,0.00,,,0.00,0.000000,,2013-11-05 03:02:00,
2013-11-04 20:11:00,27.0,20.0,-100.00,SSE,151,0.0,5.0,75,0.00,,,0.00,0.000000,,2013-11-05 03:11:00,
2013-11-04 20:22:00,27.0,20.0,-100.00,SSE,151,0.0,5.0,75,0.00,,,0.00,0.000000,,2013-11-05 03:22:00,
2013-11-04 20:54:00,27.0,20.0,-100.00,ESE,110,0.0,4.0,74,0.00,,,0.00,0.000000,,2013-11-05 03:54:00,
2013-11-04 21:03:00,27.0,20.0,-100.00,ESE,110,0.0,4.0,74,0.00,,,0.00,0.000000,,2013-11-05 04:03:00,
2013-11-04 21:13:00,27.0,20.0,-100.00,ESE,110,0.0,4.0,74,0.00,,,0.00,0.000000,,2013-11-05 04:13:00,
2013-11-04 21:23:00,27.0,20.0,-100.00,ESE,110,0.0,4.0,74,0.00,,,0.00,0.000000,,2013-11-05 04:23:00,
2013-11-04 21:53:00,26.0,16.0,-100.00,ENE,60,0.0,3.0,66,0.00,,,0.00,0.000000,,2013-11-05 04:53:00,
2013-11-04 22:03:00,26.0,16.0,-100.00,ENE,60,0.0,3.0,66,0.00,,,0.00,0.000000,,2013-11-05 05:03:00,
2013-11-04 22:13:00,26.0,16.0,-100.00,ENE,60,0.0,3.0,66,0.00,,,0.00,0.000000,,2013-11-05 05:13:00,
2013-11-04 22:23:00,26.0,16.0,-100.00,ENE,60,0.0,3.0,66,0.00,,,0.00,0.000000,,2013-11-05 05:23:00,
2013-11-04 22:54:00,24.0,14.0,-100.00,East,100,2.0,4.0,64,0.00,,,0.00,0.000000,,2013-11-05 05:54:00,
2013-11-04 23:03:00,24.0,14.0,-100.00,East,100,2.0,4.0,64,0.00,,,0.00,0.000000,,2013-11-05 06:03:00,
2013-11-04 23:12:00,24.0,14.0,-100.00,East,100,2.0,4.0,64,0.00,,,0.00,0.000000,,2013-11-05 06:12:00,
2013-11-04 23:21:00,24.0,14.0,-100.00,East,100,2.0,4.0,64,0.00,,,0.00,0.000000,,2013-11-05 06:21:00,
2013-11-04 23:52:00,22.0,13.0,-100.00,NW,309,0.0,6.0,69,0.00,,,0.00,0.000000,,2013-11-05 06:52:00,